Location: Chuathbaluk
(61.5726°N, 159.2454°W)
Time: 17:40:49
(UTC+00:00)

ZACube-1 - Pass Details

Date: 20 January 2021
Orbit: 583 x 666 km, 97.6° (Epoch: 04 March)

Event Time Altitude Azimuth Distance (km) Brightness Sun altitude
Rises 14:49:56 0° 20° (NNE) 3,025 ? -31.4°
Reaches altitude 10° 14:52:34 10° 34° (NE) 2,108 ? -31.1°
Maximum altitude 14:56:18 24° 88° (E) 1,382 ? -30.7°
Drops below altitude 10° 15:00:01 10° 143° (SE) 2,084 ? -30.3°
Sets 15:02:36 0° 157° (SSE) 2,983 ? -30.0°
